Location: Brienzwiler
(46.7508°N, 8.1014°E)
Time: 08:06:57
(UTC+00:00)

Cosmos 371 Rocket - Pass Details

Date: 05 July 2020
Orbit: 684 x 699 km, 74.0° (Epoch: 05 August)

Event Time Altitude Azimuth Distance (km) Brightness Sun altitude
Rises 23:42:30 0° 332° (NNW) 3,083 7.6 -20.6°
Reaches altitude 10° 23:44:54 10° 326° (NW) 2,159 6.6 -20.5°
Maximum altitude 23:49:30 44° 256° (WSW) 962 3.8 -20.5°
Enters shadow 23:50:24 39° 226° (SW) 1,033 3.8 -20.5°
